Location: Hepcat Sky Observatory
(29.9800°N, 95.6500°W)
Time: 14:39:55
(UTC-05:00)

Cosmos 2366 rocket - Visible Passes

Search period start: 23 August 2017 00:00
Search period end: 02 September 2017 00:00
Orbit: 956 x 996 km, 82.9° (Epoch: 22 August)

Date Brightness Start Highest point End Pass type
(mag) Time Alt. Az. Time Alt. Az. Time Alt. Az.
23 Aug 6.4 02:22:13 15° N 02:22:13 15° N 02:23:13 10° N visible
24 Aug 6.7 01:03:06 10° NNE 01:03:06 10° NNE 01:03:09 10° NNE visible
24 Aug 6.6 02:47:47 11° NNW 02:47:47 11° NNW 02:48:05 10° NNW visible
25 Aug 6.6 01:28:40 13° NNE 01:28:40 13° NNE 01:29:16 10° N visible
26 Aug 6.6 01:54:13 13° N 01:54:13 13° N 01:54:50 10° N visible
27 Aug 6.7 02:19:46 10° NNW 02:19:46 10° NNW 02:19:52 10° NNW visible
28 Aug 6.8 01:00:38 10° NNE 01:00:38 10° NNE 01:00:44 10° NNE visible
29 Aug 6.7 01:26:10 11° N 01:26:10 11° N 01:26:25 10° N visible
